Time,TemperatureF,DewpointF,PressureIn,WindDirection,WindDirectionDegrees,WindSpeedMPH,WindSpeedGustMPH,Humidity,HourlyPrecipIn,Conditions,Clouds,dailyrainin,SoftwareType,DateUTC
2013-02-17 00:00:00,40.8,25.0,30.17,North,0,2.0,13.0,53,0.00,,,0.00,meteohub,2013-02-17 05:00:00,
2013-02-17 00:01:00,40.8,25.0,30.17,North,0,3.0,13.0,53,0.00,,,0.00,meteohub,2013-02-17 05:01:00,
2013-02-17 00:02:00,40.8,25.0,30.17,North,0,4.0,13.0,53,0.00,,,0.00,meteohub,2013-02-17 05:02:00,
2013-02-17 00:03:00,40.8,25.0,30.17,North,0,2.0,13.0,53,0.00,,,0.00,meteohub,2013-02-17 05:03:00,
2013-02-17 00:09:00,40.6,24.8,30.17,North,0,3.0,9.0,53,0.00,,,0.00,meteohub,2013-02-17 05:09:00,
2013-02-17 00:15:00,40.6,23.9,30.17,North,0,5.0,9.0,51,0.00,,,0.00,meteohub,2013-02-17 05:15:00,
2013-02-17 00:21:00,40.6,24.4,30.18,North,0,3.0,10.0,52,0.00,,,0.00,meteohub,2013-02-17 05:21:00,
2013-02-17 00:27:00,40.5,24.6,30.18,North,0,1.0,10.0,53,0.00,,,0.00,meteohub,2013-02-17 05:27:00,
2013-02-17 00:32:00,40.3,25.0,30.18,North,0,3.0,9.0,54,0.00,,,0.00,meteohub,2013-02-17 05:32:00,
2013-02-17 00:37:00,39.9,24.3,30.18,North,0,2.0,9.0,53,0.00,,,0.00,meteohub,2013-02-17 05:37:00,
2013-02-17 00:42:00,39.9,24.6,30.18,North,0,6.0,9.0,54,0.00,,,0.00,meteohub,2013-02-17 05:42:00,
2013-02-17 00:47:00,39.7,23.5,30.18,North,0,9.0,9.0,52,0.00,,,0.00,meteohub,2013-02-17 05:47:00,
2013-02-17 00:52:00,39.9,22.8,30.19,North,0,6.0,10.0,50,0.00,,,0.00,meteohub,2013-02-17 05:52:00,
2013-02-17 00:57:00,39.7,22.6,30.19,North,0,5.0,10.0,50,0.00,,,0.00,meteohub,2013-02-17 05:57:00,
2013-02-17 01:02:00,39.7,22.6,30.19,North,0,3.0,12.0,50,0.00,,,0.00,meteohub,2013-02-17 06:02:00,
2013-02-17 01:07:00,39.7,22.6,30.19,North,0,5.0,12.0,50,0.00,,,0.00,meteohub,2013-02-17 06:07:00,
2013-02-17 01:12:00,39.6,22.5,30.19,North,0,5.0,12.0,50,0.00,,,0.00,meteohub,2013-02-17 06:12:00,
2013-02-17 01:17:00,39.4,22.3,30.19,North,0,2.0,12.0,50,0.00,,,0.00,meteohub,2013-02-17 06:17:00,
2013-02-17 01:22:00,39.4,21.7,30.19,North,0,4.0,12.0,49,0.00,,,0.00,meteohub,2013-02-17 06:22:00,
2013-02-17 01:27:00,39.4,22.3,30.19,North,0,4.0,12.0,50,0.00,,,0.00,meteohub,2013-02-17 06:27:00,
2013-02-17 01:32:00,39.2,22.1,30.19,North,0,5.0,12.0,50,0.00,,,0.00,meteohub,2013-02-17 06:32:00,
2013-02-17 01:37:00,39.2,22.6,30.19,North,0,5.0,11.0,51,0.00,,,0.00,meteohub,2013-02-17 06:37:00,
2013-02-17 01:42:00,39.0,21.9,30.19,North,0,4.0,11.0,50,0.00,,,0.00,meteohub,2013-02-17 06:42:00,
2013-02-17 01:47:00,39.0,22.5,30.20,North,0,3.0,11.0,51,0.00,,,0.00,meteohub,2013-02-17 06:47:00,
2013-02-17 01:52:00,39.0,21.9,30.19,North,0,3.0,11.0,50,0.00,,,0.00,meteohub,2013-02-17 06:52:00,
2013-02-17 01:57:00,38.8,21.7,30.19,North,0,3.0,11.0,50,0.00,,,0.00,meteohub,2013-02-17 06:57:00,
2013-02-17 02:02:00,38.8,22.3,30.19,North,0,3.0,11.0,51,0.00,,,0.00,meteohub,2013-02-17 07:02:00,
2013-02-17 02:07:00,38.7,21.6,30.19,North,0,1.0,10.0,50,0.00,,,0.00,meteohub,2013-02-17 07:07:00,
2013-02-17 02:12:00,38.5,21.4,30.19,North,0,5.0,10.0,50,0.00,,,0.00,meteohub,2013-02-17 07:12:00,
2013-02-17 02:17:00,38.5,21.4,30.19,North,0,3.0,7.0,50,0.00,,,0.00,meteohub,2013-02-17 07:17:00,
2013-02-17 02:22:00,38.5,21.9,30.20,North,0,6.0,7.0,51,0.00,,,0.00,meteohub,2013-02-17 07:22:00,
2013-02-17 02:27:00,38.1,21.6,30.19,North,0,6.0,11.0,51,0.00,,,0.00,meteohub,2013-02-17 07:27:00,
2013-02-17 02:32:00,38.1,22.1,30.20,North,0,5.0,11.0,52,0.00,,,0.00,meteohub,2013-02-17 07:32:00,
2013-02-17 02:37:00,37.9,21.4,30.20,North,0,3.0,10.0,51,0.00,,,0.00,meteohub,2013-02-17 07:37:00,
2013-02-17 02:42:00,37.9,21.4,30.20,North,0,4.0,10.0,51,0.00,,,0.00,meteohub,2013-02-17 07:42:00,
2013-02-17 02:47:00,37.9,21.4,30.20,North,0,7.0,7.0,51,0.00,,,0.00,meteohub,2013-02-17 07:47:00,
2013-02-17 02:52:00,37.9,21.9,30.20,North,0,2.0,7.0,52,0.00,,,0.00,meteohub,2013-02-17 07:52:00,
2013-02-17 02:57:00,37.8,21.7,30.20,North,0,6.0,9.0,52,0.00,,,0.00,meteohub,2013-02-17 07:57:00,
2013-02-17 03:02:00,37.8,22.6,30.20,North,0,1.0,9.0,54,0.00,,,0.00,meteohub,2013-02-17 08:02:00,
2013-02-17 03:07:00,37.6,22.5,30.20,North,0,4.0,8.0,54,0.00,,,0.00,meteohub,2013-02-17 08:07:00,
2013-02-17 03:13:00,37.6,22.5,30.20,North,0,3.0,8.0,54,0.00,,,0.00,meteohub,2013-02-17 08:13:00,
2013-02-17 03:18:00,37.4,22.6,30.21,North,0,0.0,8.0,55,0.00,,,0.00,meteohub,2013-02-17 08:18:00,
2013-02-17 03:24:00,37.2,22.5,30.21,North,0,2.0,9.0,55,0.00,,,0.00,meteohub,2013-02-17 08:24:00,
2013-02-17 03:30:00,37.2,23.0,30.21,North,0,5.0,9.0,56,0.00,,,0.00,meteohub,2013-02-17 08:30:00,
2013-02-17 03:36:00,37.0,22.8,30.21,North,0,0.0,8.0,56,0.00,,,0.00,meteohub,2013-02-17 08:36:00,
2013-02-17 03:42:00,37.0,23.2,30.21,North,0,3.0,8.0,57,0.00,,,0.00,meteohub,2013-02-17 08:42:00,
2013-02-17 03:47:00,37.0,23.2,30.21,North,0,2.0,9.0,57,0.00,,,0.00,meteohub,2013-02-17 08:47:00,
2013-02-17 03:52:00,37.0,22.8,30.22,North,0,4.0,9.0,56,0.00,,,0.00,meteohub,2013-02-17 08:52:00,
2013-02-17 03:57:00,37.0,22.8,30.22,North,0,3.0,9.0,56,0.00,,,0.00,meteohub,2013-02-17 08:57:00,
2013-02-17 04:02:00,36.9,22.6,30.22,North,0,4.0,9.0,56,0.00,,,0.00,meteohub,2013-02-17 09:02:00,
2013-02-17 04:07:00,36.9,22.6,30.22,North,0,2.0,7.0,56,0.00,,,0.00,meteohub,2013-02-17 09:07:00,
2013-02-17 04:12:00,36.9,22.3,30.22,North,0,5.0,7.0,55,0.00,,,0.00,meteohub,2013-02-17 09:12:00,
2013-02-17 04:17:00,37.0,22.5,30.22,North,0,4.0,7.0,55,0.00,,,0.00,meteohub,2013-02-17 09:17:00,
2013-02-17 04:22:00,37.0,22.5,30.22,North,0,3.0,7.0,55,0.00,,,0.00,meteohub,2013-02-17 09:22:00,
2013-02-17 04:27:00,36.9,22.6,30.22,North,0,5.0,10.0,56,0.00,,,0.00,meteohub,2013-02-17 09:27:00,
2013-02-17 04:32:00,36.7,22.5,30.23,North,0,5.0,10.0,56,0.00,,,0.00,meteohub,2013-02-17 09:32:00,
2013-02-17 04:37:00,36.7,22.5,30.23,North,0,3.0,9.0,56,0.00,,,0.00,meteohub,2013-02-17 09:37:00,
2013-02-17 04:42:00,36.7,22.5,30.23,North,0,6.0,9.0,56,0.00,,,0.00,meteohub,2013-02-17 09:42:00,
2013-02-17 04:47:00,36.5,22.3,30.24,North,0,7.0,12.0,56,0.00,,,0.00,meteohub,2013-02-17 09:47:00,
2013-02-17 04:52:00,36.5,21.9,30.24,North,0,3.0,12.0,55,0.00,,,0.00,meteohub,2013-02-17 09:52:00,
2013-02-17 04:57:00,36.3,21.7,30.24,North,0,4.0,12.0,55,0.00,,,0.00,meteohub,2013-02-17 09:57:00,
2013-02-17 05:02:00,36.3,22.1,30.24,North,0,6.0,12.0,56,0.00,,,0.00,meteohub,2013-02-17 10:02:00,
2013-02-17 05:07:00,36.1,21.6,30.24,North,0,2.0,12.0,55,0.00,,,0.00,meteohub,2013-02-17 10:07:00,
2013-02-17 05:12:00,36.1,21.9,30.25,North,0,3.0,12.0,56,0.00,,,0.00,meteohub,2013-02-17 10:12:00,
2013-02-17 05:17:00,36.0,22.3,30.24,North,0,1.0,12.0,57,0.00,,,0.00,meteohub,2013-02-17 10:17:00,
2013-02-17 05:22:00,36.0,22.3,30.25,North,0,6.0,12.0,57,0.00,,,0.00,meteohub,2013-02-17 10:22:00,
2013-02-17 05:27:00,35.8,22.1,30.25,North,0,2.0,9.0,57,0.00,,,0.00,meteohub,2013-02-17 10:27:00,
2013-02-17 05:32:00,35.8,22.5,30.25,North,0,3.0,9.0,58,0.00,,,0.00,meteohub,2013-02-17 10:32:00,
2013-02-17 05:37:00,35.6,21.9,30.26,North,0,5.0,8.0,57,0.00,,,0.00,meteohub,2013-02-17 10:37:00,
2013-02-17 05:42:00,35.4,21.7,30.26,North,0,3.0,8.0,57,0.00,,,0.00,meteohub,2013-02-17 10:42:00,
2013-02-17 05:48:00,35.2,21.9,30.27,North,0,5.0,9.0,58,0.00,,,0.00,meteohub,2013-02-17 10:48:00,
2013-02-17 05:54:00,35.2,21.9,30.27,North,0,2.0,9.0,58,0.00,,,0.00,meteohub,2013-02-17 10:54:00,
2013-02-17 06:00:00,35.2,21.9,30.27,North,0,3.0,9.0,58,0.00,,,0.00,meteohub,2013-02-17 11:00:00,
2013-02-17 06:06:00,35.2,21.9,30.27,North,0,8.0,10.0,58,0.00,,,0.00,meteohub,2013-02-17 11:06:00,
2013-02-17 06:12:00,35.1,21.7,30.27,North,0,7.0,10.0,58,0.00,,,0.00,meteohub,2013-02-17 11:12:00,
2013-02-17 06:17:00,35.1,22.1,30.27,North,0,1.0,9.0,59,0.00,,,0.00,meteohub,2013-02-17 11:17:00,
2013-02-17 06:22:00,34.9,21.9,30.27,North,0,3.0,9.0,59,0.00,,,0.00,meteohub,2013-02-17 11:22:00,
2013-02-17 06:27:00,34.9,22.5,30.27,North,0,3.0,8.0,60,0.00,,,0.00,meteohub,2013-02-17 11:27:00,
2013-02-17 06:32:00,34.7,22.3,30.27,North,0,5.0,8.0,60,0.00,,,0.00,meteohub,2013-02-17 11:32:00,
2013-02-17 06:37:00,34.5,22.1,30.27,North,0,4.0,8.0,60,0.00,,,0.00,meteohub,2013-02-17 11:37:00,
2013-02-17 06:43:00,34.5,22.5,30.27,North,0,0.0,8.0,61,0.00,,,0.00,meteohub,2013-02-17 11:43:00,
2013-02-17 06:49:00,34.3,22.3,30.27,North,0,6.0,8.0,61,0.00,,,0.00,meteohub,2013-02-17 11:49:00,
2013-02-17 06:55:00,34.2,22.5,30.27,North,0,2.0,7.0,62,0.00,,,0.00,meteohub,2013-02-17 11:55:00,
2013-02-17 07:01:00,34.2,22.5,30.28,North,0,2.0,7.0,62,0.00,,,0.00,meteohub,2013-02-17 12:01:00,
2013-02-17 07:07:00,34.0,22.3,30.28,North,0,0.0,7.0,62,0.00,,,0.00,meteohub,2013-02-17 12:07:00,
2013-02-17 07:12:00,34.2,22.1,30.29,North,0,2.0,7.0,61,0.00,,,0.00,meteohub,2013-02-17 12:12:00,
2013-02-17 07:17:00,34.2,22.1,30.29,North,0,2.0,9.0,61,0.00,,,0.00,meteohub,2013-02-17 12:17:00,
2013-02-17 07:22:00,34.2,22.1,30.29,North,0,3.0,9.0,61,0.00,,,0.00,meteohub,2013-02-17 12:22:00,
2013-02-17 07:27:00,34.2,22.1,30.29,North,0,8.0,9.0,61,0.00,,,0.00,meteohub,2013-02-17 12:27:00,
2013-02-17 07:32:00,34.3,22.3,30.29,North,0,3.0,8.0,61,0.00,,,0.00,meteohub,2013-02-17 12:32:00,
2013-02-17 07:37:00,34.3,22.3,30.29,North,0,4.0,8.0,61,0.00,,,0.00,meteohub,2013-02-17 12:37:00,
2013-02-17 07:42:00,34.5,22.5,30.29,North,0,3.0,8.0,61,0.00,,,0.00,meteohub,2013-02-17 12:42:00,
2013-02-17 07:48:00,34.7,22.3,30.30,North,0,3.0,7.0,60,0.00,,,0.00,meteohub,2013-02-17 12:48:00,
2013-02-17 07:54:00,34.9,22.5,30.31,North,0,3.0,8.0,60,0.00,,,0.00,meteohub,2013-02-17 12:54:00,
2013-02-17 08:00:00,35.1,22.6,30.31,North,0,3.0,8.0,60,0.00,,,0.00,meteohub,2013-02-17 13:00:00,
2013-02-17 08:06:00,35.2,21.9,30.31,North,0,3.0,11.0,58,0.00,,,0.00,meteohub,2013-02-17 13:06:00,
2013-02-17 08:12:00,35.4,22.5,30.31,North,0,7.0,11.0,59,0.00,,,0.00,meteohub,2013-02-17 13:12:00,
2013-02-17 08:17:00,35.8,21.6,30.31,North,0,5.0,12.0,56,0.00,,,0.00,meteohub,2013-02-17 13:17:00,
2013-02-17 08:22:00,36.0,21.4,30.31,North,0,5.0,12.0,55,0.00,,,0.00,meteohub,2013-02-17 13:22:00,
2013-02-17 08:27:00,36.1,21.6,30.31,North,0,3.0,12.0,55,0.00,,,0.00,meteohub,2013-02-17 13:27:00,
2013-02-17 08:32:00,36.3,21.7,30.32,North,0,1.0,12.0,55,0.00,,,0.00,meteohub,2013-02-17 13:32:00,
2013-02-17 08:37:00,36.9,21.4,30.32,North,0,4.0,12.0,53,0.00,,,0.00,meteohub,2013-02-17 13:37:00,
2013-02-17 08:42:00,37.0,21.6,30.32,North,0,6.0,12.0,53,0.00,,,0.00,meteohub,2013-02-17 13:42:00,
2013-02-17 08:47:00,37.2,21.2,30.32,North,0,3.0,10.0,52,0.00,,,0.00,meteohub,2013-02-17 13:47:00,
2013-02-17 08:52:00,37.2,20.3,30.32,North,0,3.0,10.0,50,0.00,,,0.00,meteohub,2013-02-17 13:52:00,
2013-02-17 08:57:00,37.4,19.9,30.32,North,0,6.0,16.0,49,0.00,,,0.00,meteohub,2013-02-17 13:57:00,
2013-02-17 09:02:00,37.6,19.2,30.32,North,0,10.0,16.0,47,0.00,,,0.00,meteohub,2013-02-17 14:02:00,
2013-02-17 09:07:00,37.8,19.4,30.33,North,0,6.0,14.0,47,0.00,,,0.00,meteohub,2013-02-17 14:07:00,
2013-02-17 09:12:00,37.8,18.3,30.33,North,0,3.0,14.0,45,0.00,,,0.00,meteohub,2013-02-17 14:12:00,
2013-02-17 09:17:00,38.1,18.7,30.33,North,0,4.0,13.0,45,0.00,,,0.00,meteohub,2013-02-17 14:17:00,
2013-02-17 09:22:00,38.1,17.6,30.34,North,0,7.0,13.0,43,0.00,,,0.00,meteohub,2013-02-17 14:22:00,
2013-02-17 09:27:00,38.3,17.8,30.34,North,0,1.0,15.0,43,0.00,,,0.00,meteohub,2013-02-17 14:27:00,
2013-02-17 09:32:00,38.7,17.1,30.34,North,0,4.0,15.0,41,0.00,,,0.00,meteohub,2013-02-17 14:32:00,
2013-02-17 09:37:00,38.8,17.1,30.34,North,0,5.0,16.0,41,0.00,,,0.00,meteohub,2013-02-17 14:37:00,
2013-02-17 09:42:00,38.8,14.7,30.34,North,0,6.0,16.0,37,0.00,,,0.00,meteohub,2013-02-17 14:42:00,
2013-02-17 09:47:00,38.8,14.7,30.34,North,0,7.0,16.0,37,0.00,,,0.00,meteohub,2013-02-17 14:47:00,
2013-02-17 09:52:00,38.8,16.0,30.34,North,0,6.0,16.0,39,0.00,,,0.00,meteohub,2013-02-17 14:52:00,
2013-02-17 09:57:00,39.4,17.1,30.34,North,0,6.0,17.0,40,0.00,,,0.00,meteohub,2013-02-17 14:57:00,
2013-02-17 10:03:00,39.9,15.1,30.35,North,0,5.0,17.0,36,0.00,,,0.00,meteohub,2013-02-17 15:03:00,
2013-02-17 10:09:00,40.3,16.2,30.34,North,0,2.0,13.0,37,0.00,,,0.00,meteohub,2013-02-17 15:09:00,
2013-02-17 10:15:00,40.6,15.8,30.34,North,0,7.0,10.0,36,0.00,,,0.00,meteohub,2013-02-17 15:15:00,
2013-02-17 10:21:00,40.6,16.3,30.34,North,0,3.0,10.0,37,0.00,,,0.00,meteohub,2013-02-17 15:21:00,
2013-02-17 10:26:00,40.8,16.5,30.35,North,0,1.0,13.0,37,0.00,,,0.00,meteohub,2013-02-17 15:26:00,
2013-02-17 10:32:00,40.8,15.3,30.35,North,0,10.0,13.0,35,0.00,,,0.00,meteohub,2013-02-17 15:32:00,
2013-02-17 10:37:00,41.2,15.6,30.35,North,0,4.0,13.0,35,0.00,,,0.00,meteohub,2013-02-17 15:37:00,
2013-02-17 10:42:00,41.4,16.3,30.35,North,0,9.0,13.0,36,0.00,,,0.00,meteohub,2013-02-17 15:42:00,
2013-02-17 10:47:00,41.5,16.0,30.35,North,0,6.0,14.0,35,0.00,,,0.00,meteohub,2013-02-17 15:47:00,
2013-02-17 10:52:00,41.7,16.2,30.35,North,0,5.0,14.0,35,0.00,,,0.00,meteohub,2013-02-17 15:52:00,
2013-02-17 10:57:00,41.9,14.9,30.35,North,0,6.0,14.0,33,0.00,,,0.00,meteohub,2013-02-17 15:57:00,
2013-02-17 11:02:00,42.4,14.7,30.35,North,0,12.0,14.0,32,0.00,,,0.00,meteohub,2013-02-17 16:02:00,
2013-02-17 11:07:00,42.8,14.9,30.35,North,0,3.0,12.0,32,0.00,,,0.00,meteohub,2013-02-17 16:07:00,
2013-02-17 11:12:00,43.2,13.8,30.35,North,0,2.0,12.0,30,0.00,,,0.00,meteohub,2013-02-17 16:12:00,
2013-02-17 11:17:00,43.5,14.9,30.35,North,0,2.0,13.0,31,0.00,,,0.00,meteohub,2013-02-17 16:17:00,
2013-02-17 11:22:00,44.1,14.5,30.35,North,0,5.0,13.0,30,0.00,,,0.00,meteohub,2013-02-17 16:22:00,
2013-02-17 11:27:00,44.2,14.0,30.35,North,0,3.0,14.0,29,0.00,,,0.00,meteohub,2013-02-17 16:27:00,
2013-02-17 11:33:00,44.4,14.2,30.35,North,0,4.0,14.0,29,0.00,,,0.00,meteohub,2013-02-17 16:33:00,
2013-02-17 11:39:00,44.8,13.6,30.35,North,0,5.0,14.0,28,0.00,,,0.00,meteohub,2013-02-17 16:39:00,
2013-02-17 11:45:00,45.0,14.5,30.35,North,0,6.0,12.0,29,0.00,,,0.00,meteohub,2013-02-17 16:45:00,
2013-02-17 11:51:00,45.1,14.7,30.35,North,0,6.0,12.0,29,0.00,,,0.00,meteohub,2013-02-17 16:51:00,
2013-02-17 11:57:00,45.1,16.3,30.35,North,0,4.0,11.0,31,0.00,,,0.00,meteohub,2013-02-17 16:57:00,
2013-02-17 12:02:00,45.3,14.9,30.35,North,0,3.0,11.0,29,0.00,,,0.00,meteohub,2013-02-17 17:02:00,
2013-02-17 12:07:00,45.1,14.0,30.34,North,0,4.0,11.0,28,0.00,,,0.00,meteohub,2013-02-17 17:07:00,
2013-02-17 12:12:00,45.3,14.2,30.34,North,0,6.0,11.0,28,0.00,,,0.00,meteohub,2013-02-17 17:12:00,
2013-02-17 12:17:00,45.5,14.4,30.34,North,0,4.0,13.0,28,0.00,,,0.00,meteohub,2013-02-17 17:17:00,
2013-02-17 12:22:00,45.7,13.6,30.34,North,0,4.0,13.0,27,0.00,,,0.00,meteohub,2013-02-17 17:22:00,
2013-02-17 12:27:00,45.9,14.5,30.34,North,0,9.0,13.0,28,0.00,,,0.00,meteohub,2013-02-17 17:27:00,
2013-02-17 12:32:00,45.7,13.6,30.34,North,0,5.0,13.0,27,0.00,,,0.00,meteohub,2013-02-17 17:32:00,
2013-02-17 12:37:00,46.0,13.1,30.34,North,0,5.0,12.0,26,0.00,,,0.00,meteohub,2013-02-17 17:37:00,
2013-02-17 12:42:00,46.0,14.7,30.34,North,0,3.0,12.0,28,0.00,,,0.00,meteohub,2013-02-17 17:42:00,
2013-02-17 12:47:00,46.9,13.8,30.33,North,0,4.0,12.0,26,0.00,,,0.00,meteohub,2013-02-17 17:47:00,
2013-02-17 12:52:00,47.1,15.6,30.33,North,0,3.0,12.0,28,0.00,,,0.00,meteohub,2013-02-17 17:52:00,
2013-02-17 12:57:00,46.8,15.4,30.33,North,0,1.0,13.0,28,0.00,,,0.00,meteohub,2013-02-17 17:57:00,
2013-02-17 13:02:00,47.1,15.6,30.32,North,0,5.0,13.0,28,0.00,,,0.00,meteohub,2013-02-17 18:02:00,
2013-02-17 13:07:00,47.5,15.1,30.32,North,0,6.0,14.0,27,0.00,,,0.00,meteohub,2013-02-17 18:07:00,
2013-02-17 13:12:00,47.3,15.1,30.32,North,0,6.0,14.0,27,0.00,,,0.00,meteohub,2013-02-17 18:12:00,
2013-02-17 13:18:00,47.1,15.6,30.32,North,0,9.0,15.0,28,0.00,,,0.00,meteohub,2013-02-17 18:18:00,
2013-02-17 13:23:00,47.1,14.0,30.32,North,0,4.0,15.0,26,0.00,,,0.00,meteohub,2013-02-17 18:23:00,
2013-02-17 13:29:00,47.1,13.1,30.31,North,0,7.0,15.0,25,0.00,,,0.00,meteohub,2013-02-17 18:29:00,
2013-02-17 13:35:00,47.5,15.1,30.31,North,0,9.0,15.0,27,0.00,,,0.00,meteohub,2013-02-17 18:35:00,
2013-02-17 13:41:00,47.8,14.5,30.31,North,0,6.0,14.0,26,0.00,,,0.00,meteohub,2013-02-17 18:41:00,
2013-02-17 13:47:00,48.0,14.7,30.30,North,0,5.0,11.0,26,0.00,,,0.00,meteohub,2013-02-17 18:47:00,
2013-02-17 13:52:00,48.7,16.2,30.30,North,0,6.0,11.0,27,0.00,,,0.00,meteohub,2013-02-17 18:52:00,
2013-02-17 13:57:00,48.7,14.5,30.30,North,0,5.0,12.0,25,0.00,,,0.00,meteohub,2013-02-17 18:57:00,
2013-02-17 14:02:00,49.1,14.7,30.30,North,0,5.0,12.0,25,0.00,,,0.00,meteohub,2013-02-17 19:02:00,
2013-02-17 14:07:00,49.3,16.7,30.30,North,0,3.0,13.0,27,0.00,,,0.00,meteohub,2013-02-17 19:07:00,
2013-02-17 14:12:00,48.9,14.5,30.30,North,0,9.0,13.0,25,0.00,,,0.00,meteohub,2013-02-17 19:12:00,
2013-02-17 14:17:00,49.3,14.9,30.30,North,0,11.0,11.0,25,0.00,,,0.00,meteohub,2013-02-17 19:17:00,
2013-02-17 14:22:00,48.9,13.6,30.30,North,0,5.0,11.0,24,0.00,,,0.00,meteohub,2013-02-17 19:22:00,
2013-02-17 14:27:00,49.5,14.2,30.30,North,0,8.0,15.0,24,0.00,,,0.00,meteohub,2013-02-17 19:27:00,
2013-02-17 14:32:00,49.6,15.3,30.30,North,0,7.0,15.0,25,0.00,,,0.00,meteohub,2013-02-17 19:32:00,
2013-02-17 14:38:00,50.2,13.8,30.30,North,0,1.0,14.0,23,0.00,,,0.00,meteohub,2013-02-17 19:38:00,
2013-02-17 14:43:00,49.8,13.5,30.29,North,0,6.0,14.0,23,0.00,,,0.00,meteohub,2013-02-17 19:43:00,
2013-02-17 14:48:00,50.2,13.8,30.29,North,0,7.0,12.0,23,0.00,,,0.00,meteohub,2013-02-17 19:48:00,
2013-02-17 14:54:00,50.0,13.6,30.29,North,0,4.0,13.0,23,0.00,,,0.00,meteohub,2013-02-17 19:54:00,
2013-02-17 15:00:00,50.4,14.9,30.29,North,0,10.0,13.0,24,0.00,,,0.00,meteohub,2013-02-17 20:00:00,
2013-02-17 15:06:00,50.2,12.7,30.29,North,0,8.0,16.0,22,0.00,,,0.00,meteohub,2013-02-17 20:06:00,
2013-02-17 15:12:00,50.4,14.0,30.29,North,0,7.0,16.0,23,0.00,,,0.00,meteohub,2013-02-17 20:12:00,
2013-02-17 15:17:00,50.5,15.1,30.29,North,0,3.0,16.0,24,0.00,,,0.00,meteohub,2013-02-17 20:17:00,
2013-02-17 15:22:00,50.9,15.4,30.29,North,0,6.0,16.0,24,0.00,,,0.00,meteohub,2013-02-17 20:22:00,
2013-02-17 15:27:00,51.1,15.4,30.29,North,0,7.0,13.0,24,0.00,,,0.00,meteohub,2013-02-17 20:27:00,
2013-02-17 15:32:00,51.1,14.5,30.29,North,0,4.0,13.0,23,0.00,,,0.00,meteohub,2013-02-17 20:32:00,
2013-02-17 15:37:00,50.9,14.4,30.29,North,0,8.0,11.0,23,0.00,,,0.00,meteohub,2013-02-17 20:37:00,
2013-02-17 15:42:00,50.9,15.4,30.29,North,0,6.0,11.0,24,0.00,,,0.00,meteohub,2013-02-17 20:42:00,
2013-02-17 15:47:00,50.9,14.4,30.29,North,0,5.0,14.0,23,0.00,,,0.00,meteohub,2013-02-17 20:47:00,
2013-02-17 15:52:00,51.1,13.5,30.29,North,0,10.0,14.0,22,0.00,,,0.00,meteohub,2013-02-17 20:52:00,
2013-02-17 15:57:00,51.3,14.7,30.28,North,0,3.0,13.0,23,0.00,,,0.00,meteohub,2013-02-17 20:57:00,
2013-02-17 16:02:00,51.6,15.1,30.28,North,0,0.0,13.0,23,0.00,,,0.00,meteohub,2013-02-17 21:02:00,
2013-02-17 16:07:00,51.6,15.1,30.29,North,0,9.0,11.0,23,0.00,,,0.00,meteohub,2013-02-17 21:07:00,
2013-02-17 16:12:00,51.4,14.9,30.29,North,0,3.0,11.0,23,0.00,,,0.00,meteohub,2013-02-17 21:12:00,
2013-02-17 16:17:00,51.4,13.8,30.28,North,0,2.0,13.0,22,0.00,,,0.00,meteohub,2013-02-17 21:17:00,
2013-02-17 16:22:00,51.8,15.1,30.28,North,0,5.0,13.0,23,0.00,,,0.00,meteohub,2013-02-17 21:22:00,
2013-02-17 16:27:00,52.2,15.4,30.29,North,0,1.0,11.0,23,0.00,,,0.00,meteohub,2013-02-17 21:27:00,
2013-02-17 16:32:00,52.2,14.4,30.28,North,0,4.0,11.0,22,0.00,,,0.00,meteohub,2013-02-17 21:32:00,
2013-02-17 16:37:00,51.6,15.1,30.28,North,0,2.0,9.0,23,0.00,,,0.00,meteohub,2013-02-17 21:37:00,
2013-02-17 16:42:00,51.6,16.0,30.28,North,0,5.0,9.0,24,0.00,,,0.00,meteohub,2013-02-17 21:42:00,
2013-02-17 16:47:00,51.8,15.1,30.28,North,0,3.0,12.0,23,0.00,,,0.00,meteohub,2013-02-17 21:47:00,
2013-02-17 16:52:00,51.6,14.0,30.29,North,0,8.0,12.0,22,0.00,,,0.00,meteohub,2013-02-17 21:52:00,
2013-02-17 16:57:00,51.4,14.9,30.29,North,0,11.0,15.0,23,0.00,,,0.00,meteohub,2013-02-17 21:57:00,
2013-02-17 17:02:00,51.3,14.7,30.29,North,0,6.0,15.0,23,0.00,,,0.00,meteohub,2013-02-17 22:02:00,
2013-02-17 17:07:00,51.3,15.6,30.29,North,0,4.0,15.0,24,0.00,,,0.00,meteohub,2013-02-17 22:07:00,
2013-02-17 17:12:00,51.3,14.7,30.29,North,0,2.0,15.0,23,0.00,,,0.00,meteohub,2013-02-17 22:12:00,
2013-02-17 17:17:00,51.4,15.8,30.29,North,0,2.0,12.0,24,0.00,,,0.00,meteohub,2013-02-17 22:17:00,
2013-02-17 17:22:00,51.4,15.8,30.29,North,0,4.0,12.0,24,0.00,,,0.00,meteohub,2013-02-17 22:22:00,
2013-02-17 17:27:00,51.3,15.6,30.29,North,0,4.0,10.0,24,0.00,,,0.00,meteohub,2013-02-17 22:27:00,
2013-02-17 17:32:00,50.9,14.4,30.29,North,0,6.0,10.0,23,0.00,,,0.00,meteohub,2013-02-17 22:32:00,
2013-02-17 17:37:00,50.7,15.3,30.29,North,0,8.0,11.0,24,0.00,,,0.00,meteohub,2013-02-17 22:37:00,
2013-02-17 17:42:00,50.5,15.1,30.29,North,0,8.0,11.0,24,0.00,,,0.00,meteohub,2013-02-17 22:42:00,
2013-02-17 17:47:00,50.4,14.9,30.29,North,0,7.0,10.0,24,0.00,,,0.00,meteohub,2013-02-17 22:47:00,
2013-02-17 17:52:00,50.0,13.6,30.29,North,0,2.0,10.0,23,0.00,,,0.00,meteohub,2013-02-17 22:52:00,
2013-02-17 17:57:00,49.8,13.5,30.29,North,0,4.0,11.0,23,0.00,,,0.00,meteohub,2013-02-17 22:57:00,
2013-02-17 18:02:00,49.8,15.4,30.30,North,0,5.0,11.0,25,0.00,,,0.00,meteohub,2013-02-17 23:02:00,
2013-02-17 18:07:00,49.5,15.1,30.30,North,0,2.0,9.0,25,0.00,,,0.00,meteohub,2013-02-17 23:07:00,
2013-02-17 18:12:00,49.5,16.0,30.30,North,0,2.0,9.0,26,0.00,,,0.00,meteohub,2013-02-17 23:12:00,
2013-02-17 18:17:00,49.1,15.6,30.30,North,0,1.0,7.0,26,0.00,,,0.00,meteohub,2013-02-17 23:17:00,
2013-02-17 18:22:00,48.9,16.3,30.30,North,0,3.0,7.0,27,0.00,,,0.00,meteohub,2013-02-17 23:22:00,
2013-02-17 18:27:00,48.7,16.2,30.30,North,0,0.0,5.0,27,0.00,,,0.00,meteohub,2013-02-17 23:27:00,
2013-02-17 18:32:00,48.6,17.8,30.30,North,0,1.0,5.0,29,0.00,,,0.00,meteohub,2013-02-17 23:32:00,
2013-02-17 18:37:00,48.4,18.3,30.30,North,0,0.0,5.0,30,0.00,,,0.00,meteohub,2013-02-17 23:37:00,
2013-02-17 18:42:00,48.2,20.5,30.30,North,0,0.0,5.0,33,0.00,,,0.00,meteohub,2013-02-17 23:42:00,
2013-02-17 18:47:00,48.0,20.3,30.30,North,0,0.0,2.0,33,0.00,,,0.00,meteohub,2013-02-17 23:47:00,
2013-02-17 18:52:00,47.8,18.7,30.31,North,0,0.0,2.0,31,0.00,,,0.00,meteohub,2013-02-17 23:52:00,
2013-02-17 18:57:00,47.7,19.9,30.31,North,0,0.0,0.0,33,0.00,,,0.00,meteohub,2013-02-17 23:57:00,
2013-02-17 19:02:00,47.5,19.0,30.31,North,0,0.0,0.0,32,0.00,,,0.00,meteohub,2013-02-18 00:02:00,
2013-02-17 19:07:00,47.1,20.1,30.31,North,0,0.0,0.0,34,0.00,,,0.00,meteohub,2013-02-18 00:07:00,
2013-02-17 19:12:00,46.9,21.4,30.31,North,0,3.0,0.0,36,0.00,,,0.00,meteohub,2013-02-18 00:12:00,
2013-02-17 19:17:00,46.8,20.5,30.31,North,0,0.0,3.0,35,0.00,,,0.00,meteohub,2013-02-18 00:17:00,
2013-02-17 19:22:00,46.8,19.2,30.32,North,0,0.0,3.0,33,0.00,,,0.00,meteohub,2013-02-18 00:22:00,
2013-02-17 19:27:00,46.8,19.2,30.32,North,0,0.0,3.0,33,0.00,,,0.00,meteohub,2013-02-18 00:27:00,
2013-02-17 19:32:00,46.6,19.8,30.32,North,0,0.0,4.0,34,0.00,,,0.00,meteohub,2013-02-18 00:32:00,
2013-02-17 19:37:00,46.4,20.3,30.32,North,0,0.0,4.0,35,0.00,,,0.00,meteohub,2013-02-18 00:37:00,
2013-02-17 19:42:00,46.0,20.5,30.32,North,0,0.0,1.0,36,0.00,,,0.00,meteohub,2013-02-18 00:42:00,
2013-02-17 19:47:00,45.5,21.4,30.32,North,0,0.0,0.0,38,0.00,,,0.00,meteohub,2013-02-18 00:47:00,
2013-02-17 19:52:00,44.8,21.4,30.33,North,0,0.0,0.0,39,0.00,,,0.00,meteohub,2013-02-18 00:52:00,
2013-02-17 19:57:00,44.1,21.2,30.33,North,0,0.0,0.0,40,0.00,,,0.00,meteohub,2013-02-18 00:57:00,
2013-02-17 20:02:00,43.3,21.7,30.33,North,0,0.0,0.0,42,0.00,,,0.00,meteohub,2013-02-18 01:02:00,
2013-02-17 20:07:00,43.0,22.6,30.33,North,0,0.0,0.0,44,0.00,,,0.00,meteohub,2013-02-18 01:07:00,
2013-02-17 20:12:00,42.6,21.7,30.34,North,0,0.0,0.0,43,0.00,,,0.00,meteohub,2013-02-18 01:12:00,
2013-02-17 20:17:00,42.3,21.9,30.34,North,0,0.0,0.0,44,0.00,,,0.00,meteohub,2013-02-18 01:17:00,
2013-02-17 20:22:00,42.1,21.2,30.34,North,0,0.0,0.0,43,0.00,,,0.00,meteohub,2013-02-18 01:22:00,
2013-02-17 20:27:00,42.1,21.2,30.34,North,0,0.0,0.0,43,0.00,,,0.00,meteohub,2013-02-18 01:27:00,
2013-02-17 20:33:00,41.7,21.4,30.35,North,0,0.0,0.0,44,0.00,,,0.00,meteohub,2013-02-18 01:33:00,
2013-02-17 20:39:00,41.7,22.5,30.35,North,0,0.0,0.0,46,0.00,,,0.00,meteohub,2013-02-18 01:39:00,
2013-02-17 20:45:00,41.5,21.2,30.35,North,0,0.0,0.0,44,0.00,,,0.00,meteohub,2013-02-18 01:45:00,
2013-02-17 20:51:00,41.5,21.7,30.35,North,0,0.0,0.0,45,0.00,,,0.00,meteohub,2013-02-18 01:51:00,
2013-02-17 20:56:00,41.4,21.6,30.35,North,0,0.0,0.0,45,0.00,,,0.00,meteohub,2013-02-18 01:56:00,
2013-02-17 21:02:00,41.4,21.6,30.35,North,0,0.0,0.0,45,0.00,,,0.00,meteohub,2013-02-18 02:02:00,
2013-02-17 21:07:00,41.4,21.6,30.35,North,0,0.0,1.0,45,0.00,,,0.00,meteohub,2013-02-18 02:07:00,
2013-02-17 21:12:00,41.5,22.8,30.36,North,0,0.0,1.0,47,0.00,,,0.00,meteohub,2013-02-18 02:12:00,
2013-02-17 21:17:00,41.4,22.1,30.36,North,0,0.0,1.0,46,0.00,,,0.00,meteohub,2013-02-18 02:17:00,
2013-02-17 21:22:00,41.4,22.6,30.36,North,0,0.0,1.0,47,0.00,,,0.00,meteohub,2013-02-18 02:22:00,
2013-02-17 21:27:00,41.5,22.8,30.36,North,0,0.0,0.0,47,0.00,,,0.00,meteohub,2013-02-18 02:27:00,
2013-02-17 21:32:00,41.4,22.6,30.36,North,0,0.0,0.0,47,0.00,,,0.00,meteohub,2013-02-18 02:32:00,
2013-02-17 21:37:00,41.2,23.0,30.36,North,0,0.0,0.0,48,0.00,,,0.00,meteohub,2013-02-18 02:37:00,
2013-02-17 21:42:00,41.2,23.5,30.36,North,0,0.0,0.0,49,0.00,,,0.00,meteohub,2013-02-18 02:42:00,
2013-02-17 21:47:00,40.6,23.0,30.37,North,0,0.0,0.0,49,0.00,,,0.00,meteohub,2013-02-18 02:47:00,
2013-02-17 21:52:00,40.3,23.2,30.37,North,0,0.0,0.0,50,0.00,,,0.00,meteohub,2013-02-18 02:52:00,
2013-02-17 21:57:00,39.6,23.4,30.37,North,0,0.0,0.0,52,0.00,,,0.00,meteohub,2013-02-18 02:57:00,
2013-02-17 22:02:00,39.0,23.7,30.37,North,0,0.0,0.0,54,0.00,,,0.00,meteohub,2013-02-18 03:02:00,
2013-02-17 22:07:00,38.7,24.3,30.37,NNE,25,0.0,1.0,56,0.00,,,0.00,meteohub,2013-02-18 03:07:00,
2013-02-17 22:12:00,38.5,25.0,30.37,North,0,0.0,1.0,58,0.00,,,0.00,meteohub,2013-02-18 03:12:00,
2013-02-17 22:17:00,38.1,24.6,30.38,North,0,0.0,1.0,58,0.00,,,0.00,meteohub,2013-02-18 03:17:00,
2013-02-17 22:22:00,38.1,25.5,30.38,North,0,0.0,1.0,60,0.00,,,0.00,meteohub,2013-02-18 03:22:00,
2013-02-17 22:27:00,37.9,25.7,30.38,North,0,0.0,0.0,61,0.00,,,0.00,meteohub,2013-02-18 03:27:00,
2013-02-17 22:32:00,37.6,25.0,30.38,NNE,24,0.0,0.0,60,0.00,,,0.00,meteohub,2013-02-18 03:32:00,
2013-02-17 22:37:00,37.2,25.3,30.38,North,0,0.0,0.0,62,0.00,,,0.00,meteohub,2013-02-18 03:37:00,
2013-02-17 22:42:00,37.0,25.7,30.38,North,0,0.0,0.0,63,0.00,,,0.00,meteohub,2013-02-18 03:42:00,
2013-02-17 22:47:00,36.7,25.7,30.38,North,0,0.0,0.0,64,0.00,,,0.00,meteohub,2013-02-18 03:47:00,
2013-02-17 22:52:00,36.3,25.3,30.38,NNE,24,0.0,0.0,64,0.00,,,0.00,meteohub,2013-02-18 03:52:00,
2013-02-17 22:57:00,36.1,25.5,30.39,NNE,24,0.0,0.0,65,0.00,,,0.00,meteohub,2013-02-18 03:57:00,
2013-02-17 23:02:00,36.0,25.0,30.39,NNE,24,0.0,0.0,64,0.00,,,0.00,meteohub,2013-02-18 04:02:00,
2013-02-17 23:07:00,35.6,24.6,30.39,NNE,24,0.0,0.0,64,0.00,,,0.00,meteohub,2013-02-18 04:07:00,
2013-02-17 23:12:00,35.4,24.4,30.38,NNE,24,0.0,0.0,64,0.00,,,0.00,meteohub,2013-02-18 04:12:00,
2013-02-17 23:17:00,35.2,24.6,30.38,NNE,24,0.0,0.0,65,0.00,,,0.00,meteohub,2013-02-18 04:17:00,
2013-02-17 23:22:00,35.1,24.4,30.38,NNE,24,0.0,0.0,65,0.00,,,0.00,meteohub,2013-02-18 04:22:00,
2013-02-17 23:28:00,35.1,25.2,30.38,NNE,24,0.0,0.0,67,0.00,,,0.00,meteohub,2013-02-18 04:28:00,
2013-02-17 23:34:00,35.1,25.2,30.39,North,0,0.0,0.0,67,0.00,,,0.00,meteohub,2013-02-18 04:34:00,
2013-02-17 23:40:00,35.1,25.5,30.38,NNE,24,0.0,0.0,68,0.00,,,0.00,meteohub,2013-02-18 04:40:00,
2013-02-17 23:46:00,34.9,25.3,30.39,NNE,24,0.0,0.0,68,0.00,,,0.00,meteohub,2013-02-18 04:46:00,
2013-02-17 23:52:00,34.9,25.7,30.39,North,0,0.0,0.0,69,0.00,,,0.00,meteohub,2013-02-18 04:52:00,
2013-02-17 23:57:00,34.5,25.7,30.39,NNE,24,0.0,0.0,70,0.00,,,0.00,meteohub,2013-02-18 04:57:00,